Location: Cypress Hills Dark-Sky Preserve - CHICO
(49.6176°N, 110.2634°W)
Time: 02:33:12
(UTC-06:00)

Amateur Radio Satellites - All Passes

Search period start: 28 May 2017 02:03
Search period end: 29 May 2017 02:03
Location: Cypress Hills Dark-Sky Preserve - CHICO, 49.6176°N, 110.2634°W

Satellite Date Start Highest point End Downlink Frequencies (MHz)
Time Altitude Azimuth
PCSat 28 May 02:08:12 02:12:03 19° 26° (NNE) 02:15:54 145.827
50 SAT 28 May 02:08:53 02:11:25 19° 267° (W) 02:13:57 437.505
BEESAT 28 May 02:09:54 02:13:35 23° 60° (ENE) 02:17:16 436.000
DX 1 28 May 02:12:38 02:16:36 33° 263° (W) 02:20:33 434.975-435.025
Tancredo 1 28 May 02:15:43 02:18:35 35° 211° (SSW) 02:21:25 437.200
AIST 2D 28 May 02:19:56 02:21:21 12° 300° (WNW) 02:22:45 435.315
SO-50 28 May 02:37:39 02:39:51 13° 350° (N) 02:42:02 436.795
NANOSAT C BR1 28 May 02:47:15 02:50:15 19° 299° (WNW) 02:53:14 145.865
POLYITAN 1 28 May 02:53:36 02:56:13 16° 301° (WNW) 02:58:50 437.675
DUCHIFAT 1 28 May 02:57:15 03:00:01 17° 300° (WNW) 03:02:47 145.980
ISS 28 May 03:02:24 03:05:12 26° 216° (SW) 03:07:59 437.550
QB50P2 28 May 03:02:58 03:04:51 13° 304° (WNW) 03:06:44 145.880/145.840
AO-7 28 May 03:06:07 03:09:44 13° 82° (E) 03:13:22 .
BUGSAT 1 28 May 03:08:14 03:11:55 32° 294° (WNW) 03:15:38 437.445
ITUPSAT 1 28 May 03:13:43 03:18:29 74° 72° (ENE) 03:23:17 437.325
MOZHAYETS 4 28 May 03:14:34 03:18:56 44° 68° (ENE) 03:23:22
Gurwin Techsat 1B 28 May 03:31:09 03:36:31 82° 105° (ESE) 03:41:51 435.225
RS-15 28 May 03:38:03 03:50:18 88° 128° (SE) 04:02:45 29.354- 29.394
Oscar 19 28 May 03:40:58 03:46:01 54° 291° (WNW) 03:51:01 437.125/150
BEESAT 28 May 03:46:19 03:51:00 57° 259° (W) 03:55:44 436.000
PCSat 28 May 03:51:11 03:56:35 59° 49° (NE) 04:01:57 145.827
YUBILEINY 28 May 03:51:19 03:58:52 31° 299° (WNW) 04:06:30 435.215
O/OREOS (USA 219) 28 May 03:51:57 03:55:45 26° 104° (ESE) 03:59:33 437.305
KKS-1 28 May 03:57:05 04:00:29 22° 61° (ENE) 04:03:54 437.445
CUBESAT XI-V 28 May 04:05:15 04:09:21 30° 64° (ENE) 04:13:26 437.345
SO-50 28 May 04:19:40 04:22:10 14° 15° (NNE) 04:24:41 436.795
STARS 28 May 04:23:44 04:26:48 19° 60° (ENE) 04:29:51 437.465
ITAMSAT 1 28 May 04:45:52 04:51:02 60° 102° (ESE) 04:56:12 435.822/435.867
AO-85 28 May 04:51:01 04:54:42 32° 120° (ESE) 04:58:17 145.980
MOZHAYETS 4 28 May 04:52:28 04:56:17 25° 267° (W) 05:00:09
ITUPSAT 1 28 May 04:53:56 04:56:51 16° 271° (W) 04:59:48 437.325
AO-7 28 May 04:56:04 05:04:21 60° 104° (ESE) 05:12:35 .
BEESAT 3 28 May 04:58:43 05:00:57 15° 112° (ESE) 05:03:13 437.485
Gurwin Techsat 1B 28 May 05:12:12 05:15:51 19° 304° (NW) 05:19:30 435.225
Oscar 19 28 May 05:23:05 05:24:15 11° 311° (NW) 05:25:24 437.125/150
O/OREOS (USA 219) 28 May 05:30:33 05:34:57 44° 304° (WNW) 05:39:22 437.305
KKS-1 28 May 05:32:27 05:36:46 50° 260° (W) 05:41:05 437.445
PCSat 28 May 05:35:07 05:39:40 28° 250° (WSW) 05:44:12 145.827
CUBESAT XI-V 28 May 05:42:11 05:46:36 39° 263° (W) 05:51:02 437.345
RS-15 28 May 05:52:34 06:04:21 47° 336° (NNW) 06:16:09 29.354- 29.394
STARS 28 May 05:58:26 06:02:44 60° 258° (WSW) 06:07:04 437.465
SO-50 28 May 05:59:42 06:03:54 36° 39° (NE) 06:08:05 436.795
STRAND 1 28 May 06:10:15 06:13:25 17° 55° (NE) 06:16:35 437.568
DOVE 4 28 May 06:14:35 06:17:34 19° 91° (E) 06:20:35 437.250
BEESAT 2 28 May 06:18:18 06:21:53 33° 119° (ESE) 06:25:32 435.950
ITAMSAT 1 28 May 06:26:00 06:30:08 24° 301° (WNW) 06:34:16 435.822/435.867
AO-85 28 May 06:31:18 06:35:03 36° 319° (NW) 06:38:44 145.980
BEESAT 3 28 May 06:34:01 06:38:00 76° 310° (NW) 06:42:03 437.485
AO-7 28 May 06:49:14 06:56:51 42° 305° (NW) 07:04:29 .
LilacSat-2 28 May 06:51:52 06:55:08 25° 94° (E) 06:58:22 437.200
CUTE-I 28 May 06:53:48 06:58:14 26° 93° (E) 07:02:39 437.470
O/OREOS (USA 219) 28 May 07:14:54 07:15:36 10° 326° (NW) 07:16:18 437.305
XW-2D 28 May 07:23:40 07:27:28 53° 100° (E) 07:31:13 145.860 - 145.880
CUTE 1.7 + AOD 2 28 May 07:29:07 07:30:12 11° 86° (E) 07:31:17 437.475
XW-2B 28 May 07:31:38 07:35:29 63° 101° (E) 07:39:18 145.730 - 145.750
M-CUBED/EXP-1 PRIME 28 May 07:34:19 07:37:29 23° 59° (ENE) 07:40:29 437.505
NUDT-PHONESAT 28 May 07:36:22 07:40:07 56° 101° (E) 07:43:49 437.300
SO-50 28 May 07:40:10 07:44:27 42° 239° (WSW) 07:48:43 436.795
XW-2F 28 May 07:42:55 07:46:48 82° 104° (ESE) 07:50:37 145.980 - 146.000
XW-2C 28 May 07:45:23 07:49:17 89° 285° (WNW) 07:53:08 145.795 - 145.815
STRAND 1 28 May 07:46:48 07:51:54 90° 77° (ENE) 07:57:03 437.568
KAITUO 1B 28 May 07:47:26 07:51:16 77° 103° (ESE) 07:55:03 145.475/437.950
DOVE 4 28 May 07:51:33 07:55:34 49° 289° (WNW) 07:59:40 437.250
BEESAT 2 28 May 07:55:52 07:59:37 37° 319° (NW) 08:03:25 435.950
RS-15 28 May 08:08:57 08:20:28 41° 10° (N) 08:31:42 29.354- 29.394
SEEDS 28 May 08:13:11 08:16:19 20° 91° (E) 08:19:26 437.485
BEESAT 3 28 May 08:13:27 08:16:15 18° 332° (NNW) 08:19:04 437.485
AO-85 28 May 08:15:00 08:16:33 12° 342° (NNW) 08:18:05 145.980
CUBEBUG 2 28 May 08:23:49 08:27:25 22° 92° (E) 08:31:03 437.445
LilacSat-2 28 May 08:25:57 08:29:27 32° 292° (WNW) 08:32:55 437.200
HO-68 28 May 08:26:23 08:33:16 45° 98° (E) 08:40:05 435.675
UWE-3 28 May 08:30:43 08:33:41 17° 89° (E) 08:36:39 435.000/436.395/437.385
CUTE-I 28 May 08:33:23 08:38:35 54° 292° (WNW) 08:43:47 437.470
AO-7 28 May 08:43:27 08:47:28 15° 330° (NNW) 08:51:30 .
Oscar 11 28 May 08:56:46 08:58:28 12° 86° (E) 09:00:09 .
XW-2D 28 May 08:58:46 09:01:16 17° 298° (WNW) 09:03:46 145.860 - 145.880
CUTE 1.7 + AOD 2 28 May 09:02:24 09:06:43 90° 230° (SW) 09:10:57 437.475
AAUSAT CUBESAT 2 28 May 09:06:48 09:10:35 33° 96° (E) 09:14:20 437.432
XW-2B 28 May 09:07:02 09:09:14 15° 300° (WNW) 09:11:24 145.730 - 145.750
NO-84 28 May 09:07:32 09:11:39 40° 140° (SE) 09:15:38 435.350 FM
M-CUBED/EXP-1 PRIME 28 May 09:07:51 09:11:46 42° 254° (WSW) 09:15:26 437.505
XW-2A 28 May 09:10:48 09:14:15 74° 286° (WNW) 09:17:42 145.665 - 145.685
NUDT-PHONESAT 28 May 09:11:20 09:13:37 16° 299° (WNW) 09:15:54 437.300
TIGRISAT 28 May 09:11:31 09:14:26 18° 59° (ENE) 09:17:25 435.000
PRISM 28 May 09:15:57 09:19:19 25° 64° (ENE) 09:22:41 437.425
XW-2F 28 May 09:18:52 09:20:21 12° 302° (WNW) 09:21:48 145.980 - 146.000
XW-2C 28 May 09:21:45 09:22:50 11° 303° (WNW) 09:23:55 145.795 - 145.815
KAITUO 1B 28 May 09:23:06 09:24:43 12° 301° (WNW) 09:26:20 145.475/437.950
AO-73 28 May 09:23:59 09:27:56 28° 94° (E) 09:31:53 145.935
STRAND 1 28 May 09:29:10 09:31:49 14° 273° (W) 09:34:30 437.568
FO-29 28 May 09:35:55 09:40:39 37° 63° (ENE) 09:45:40 435.910
BEESAT 2 28 May 09:36:39 09:38:29 13° 342° (NNW) 09:40:19 435.950
ZACube-1 28 May 09:38:53 09:43:14 42° 98° (E) 09:47:35 437.345
UNISAT 6 28 May 09:42:34 09:46:30 35° 66° (ENE) 09:50:30 437.425
SEEDS 28 May 09:48:12 09:52:16 47° 290° (WNW) 09:56:17 437.485
CUBEBUG 2 28 May 09:59:50 10:04:16 51° 289° (WNW) 10:08:48 437.445
YUBILEINY 28 May 10:02:12 10:06:01 13° 42° (NE) 10:09:50 435.215
UWE-3 28 May 10:06:00 10:10:34 68° 287° (WNW) 10:15:11 435.000/436.395/437.385
HO-68 28 May 10:14:14 10:21:02 46° 299° (WNW) 10:27:49 435.675
CUTE-I 28 May 10:16:04 10:17:31 11° 312° (NW) 10:18:57 437.470
EO-88 28 May 10:18:53 10:21:09 15° 90° (E) 10:23:24 145.990 - 145.960
RS-15 28 May 10:23:13 10:35:35 68° 41° (NE) 10:47:22 29.354- 29.394
Oscar 11 28 May 10:30:49 10:35:13 85° 285° (WNW) 10:39:34 .
NANOSAT C BR1 28 May 10:35:07 10:35:47 10° 54° (NE) 10:36:27 145.865
CUTE 1.7 + AOD 2 28 May 10:39:57 10:41:52 13° 303° (WNW) 10:43:48 437.475
POLYITAN 1 28 May 10:40:12 10:42:04 13° 56° (ENE) 10:43:57 437.675
AAUSAT CUBESAT 2 28 May 10:42:25 10:45:58 27° 294° (WNW) 10:49:27 437.432
DELFI C3 28 May 10:43:16 10:47:00 39° 97° (E) 10:50:41 145.870
DUCHIFAT 1 28 May 10:43:57 10:45:20 11° 55° (NE) 10:46:43 145.980
NO-84 28 May 10:44:54 10:49:13 61° 338° (NNW) 10:53:18 435.350 FM
TIGRISAT 28 May 10:46:26 10:50:41 62° 259° (W) 10:55:04 435.000
QB50P2 28 May 10:48:09 10:50:44 16° 59° (ENE) 10:53:20 145.880/145.840
PRISM 28 May 10:50:35 10:54:27 38° 262° (W) 10:58:19 437.425
AO-73 28 May 11:00:01 11:04:15 38° 292° (WNW) 11:08:28 145.935
ZACube-1 28 May 11:15:31 11:19:20 27° 296° (WNW) 11:23:10 437.345
UNISAT 6 28 May 11:19:33 11:23:16 28° 266° (W) 11:27:05 437.425
FO-29 28 May 11:21:07 11:25:51 35° 265° (W) 11:30:49 435.910
AIST 2D 28 May 11:23:15 11:26:39 47° 72° (ENE) 11:30:06 435.315
EO-79 28 May 11:23:15 11:26:54 30° 65° (ENE) 11:30:35 145.935-145.965
BEESAT 3 28 May 11:32:49 11:34:46 13° 20° (NNE) 11:36:43 437.485
AO-85 28 May 11:37:32 11:40:37 21° 32° (NNE) 11:43:47 145.980
UWE-3 28 May 11:44:50 11:46:12 11° 306° (NW) 11:47:34 435.000/436.395/437.385
Oscar 19 28 May 11:48:27 11:49:44 11° 49° (NE) 11:51:01 437.125/150
EO-88 28 May 11:51:32 11:55:07 48° 288° (WNW) 11:58:40 145.990 - 145.960
YUBILEINY 28 May 11:57:11 12:05:41 47° 69° (ENE) 12:14:08 435.215
HO-68 28 May 12:03:54 12:07:05 13° 321° (NW) 12:10:15 435.675
NANOSAT C BR1 28 May 12:06:33 12:10:43 72° 73° (ENE) 12:14:55 145.865
Oscar 11 28 May 12:08:46 12:10:39 13° 304° (NW) 12:12:32 .
POLYITAN 1 28 May 12:13:00 12:17:13 90° 297° (WNW) 12:21:28 437.675
DUCHIFAT 1 28 May 12:16:07 12:20:18 81° 72° (ENE) 12:24:30 145.980
O/OREOS (USA 219) 28 May 12:18:10 12:21:23 19° 44° (NE) 12:24:34 437.305
DELFI C3 28 May 12:18:30 12:21:34 22° 296° (WNW) 12:24:37 145.870
QB50P2 28 May 12:21:51 12:26:02 68° 258° (WSW) 12:30:16 145.880/145.840
AO-7 28 May 12:22:42 12:25:35 12° 25° (NNE) 12:28:28 .
NO-84 28 May 12:23:21 12:27:20 38° 359° (N) 12:31:02 435.350 FM
BUGSAT 1 28 May 12:26:36 12:30:15 35° 67° (ENE) 12:33:56 437.445
LO-87 28 May 12:27:53 12:31:26 64° 101° (E) 12:34:59 145.935 - 145.965
RS-15 28 May 12:36:19 12:47:43 49° 248° (WSW) 12:58:38 29.354- 29.394
ESTCUBE 1 28 May 12:40:16 12:44:40 49° 99° (E) 12:49:01 437.505/2401.250
BEESAT 2 28 May 12:54:21 12:57:21 19° 30° (NNE) 13:00:20 435.950
AIST 2D 28 May 12:58:08 13:00:08 14° 270° (W) 13:02:10 435.315
EO-79 28 May 12:58:52 13:02:37 32° 264° (W) 13:06:25 145.935-145.965
SPROUT 28 May 13:05:58 13:09:35 26° 94° (E) 13:13:10 437.525
BEESAT 3 28 May 13:09:34 13:13:24 40° 42° (NE) 13:17:12 437.485
AO-85 28 May 13:17:26 13:21:26 76° 233° (SW) 13:25:37 145.980
Gurwin Techsat 1B 28 May 13:17:39 13:22:21 33° 63° (ENE) 13:27:05 435.225
Oscar 19 28 May 13:22:55 13:27:58 54° 69° (ENE) 13:33:03 437.125/150
50 SAT 28 May 13:27:01 13:29:30 19° 93° (E) 13:31:57 437.505
VELOX 1 28 May 13:27:08 13:31:17 39° 98° (E) 13:35:24 145.980
UKube-1 28 May 13:44:46 13:47:32 16° 90° (E) 13:50:16 .
NANOSAT C BR1 28 May 13:44:52 13:46:56 13° 272° (W) 13:49:01 145.865
POLYITAN 1 28 May 13:52:47 13:53:39 11° 274° (W) 13:54:31 437.675
YUBILEINY 28 May 13:54:13 14:02:33 49° 272° (W) 14:10:53 435.215
DUCHIFAT 1 28 May 13:55:00 13:56:33 12° 273° (W) 13:58:06 145.980
DX 1 28 May 13:56:03 13:59:51 29° 96° (E) 14:03:38 434.975-435.025
O/OREOS (USA 219) 28 May 13:56:50 14:01:23 78° 245° (WSW) 14:05:51 437.305
NO-84 28 May 14:01:25 14:05:27 57° 20° (NNE) 14:09:09 435.350 FM
BUGSAT 1 28 May 14:02:23 14:05:42 24° 266° (W) 14:09:02 437.445
LO-87 28 May 14:02:50 14:04:26 13° 300° (WNW) 14:06:01 145.935 - 145.965
AO-7 28 May 14:08:44 14:15:52 34° 50° (NE) 14:23:02 .
ESTCUBE 1 28 May 14:17:38 14:21:12 23° 298° (WNW) 14:24:44 437.505/2401.250
ITAMSAT 1 28 May 14:30:16 14:34:23 25° 59° (ENE) 14:38:30 435.822/435.867
BEESAT 2 28 May 14:31:36 14:35:42 85° 50° (NE) 14:39:45 435.950
SPROUT 28 May 14:41:37 14:45:35 37° 292° (WNW) 14:49:32 437.525
BEESAT 3 28 May 14:47:22 14:50:54 30° 241° (WSW) 14:54:23 437.485
RS-15 28 May 14:54:54 14:56:41 10° 273° (W) 14:58:27 29.354- 29.394
Gurwin Techsat 1B 28 May 14:57:10 15:02:12 43° 262° (W) 15:07:16 435.225
50 SAT 28 May 14:59:23 15:02:28 33° 291° (WNW) 15:05:32 437.505
Oscar 19 28 May 15:03:24 15:07:36 25° 268° (W) 15:11:51 437.125/150
VELOX 1 28 May 15:03:55 15:07:35 26° 296° (WNW) 15:11:14 145.980
ITUPSAT 1 28 May 15:11:16 15:13:44 14° 87° (E) 15:16:12 437.325
UKube-1 28 May 15:19:42 15:23:58 61° 288° (WNW) 15:28:11 .
DX 1 28 May 15:32:09 15:36:04 34° 294° (WNW) 15:39:58 434.975-435.025
NO-84 28 May 15:39:19 15:42:56 37° 222° (SW) 15:46:14 435.350 FM
BEESAT 28 May 15:42:10 15:46:13 26° 94° (E) 15:50:14 436.000
AO-7 28 May 15:59:45 16:08:02 76° 252° (WSW) 16:16:24 .
ITAMSAT 1 28 May 16:08:23 16:13:29 59° 258° (WSW) 16:18:38 435.822/435.867
BEESAT 2 28 May 16:10:54 16:12:52 13° 249° (WSW) 16:14:48 435.950
MOZHAYETS 4 28 May 16:41:50 16:46:26 56° 100° (E) 16:51:00
CUTE-I 28 May 16:43:40 16:45:53 13° 50° (NE) 16:48:06 437.470
ITUPSAT 1 28 May 16:47:22 16:52:13 86° 287° (WNW) 16:57:02 437.325
XW-2C 28 May 17:00:37 17:00:41 10° 57° (ENE) 17:00:44 145.795 - 145.815
HO-68 28 May 17:16:18 17:20:01 15° 41° (NE) 17:23:43 435.675
KKS-1 28 May 17:19:15 17:22:44 22° 93° (E) 17:26:12 437.445
BEESAT 28 May 17:19:36 17:24:11 45° 292° (WNW) 17:28:44 436.000
DOVE 4 28 May 17:23:54 17:27:52 32° 67° (ENE) 17:31:41 437.250
CUBESAT XI-V 28 May 17:33:58 17:38:19 38° 97° (E) 17:42:37 437.345
LilacSat-2 28 May 17:37:53 17:41:02 24° 65° (ENE) 17:44:11 437.200
STARS 28 May 17:44:01 17:47:02 18° 91° (E) 17:50:03 437.465
AO-7 28 May 17:56:55 18:02:14 18° 274° (W) 18:07:36 .
XW-2D 28 May 18:08:43 18:12:23 47° 71° (ENE) 18:16:07 145.860 - 145.880
XW-2B 28 May 18:16:39 18:20:24 56° 72° (ENE) 18:24:12 145.730 - 145.750
NUDT-PHONESAT 28 May 18:19:29 18:23:04 47° 72° (ENE) 18:26:42 437.300
MOZHAYETS 4 28 May 18:19:43 18:23:14 22° 299° (WNW) 18:26:45
CUTE-I 28 May 18:19:43 18:24:56 63° 70° (ENE) 18:30:12 437.470
CUTE 1.7 + AOD 2 28 May 18:25:15 18:27:44 15° 59° (ENE) 18:30:13 437.475
ITUPSAT 1 28 May 18:26:41 18:29:20 15° 305° (NW) 18:31:59 437.325
XW-2F 28 May 18:27:30 18:31:17 72° 74° (ENE) 18:35:08 145.980 - 146.000
XW-2C 28 May 18:30:21 18:34:10 81° 78° (ENE) 18:38:03 145.795 - 145.815
KAITUO 1B 28 May 18:31:08 18:34:53 66° 73° (ENE) 18:38:41 145.475/437.950
PCSat 28 May 18:38:37 18:42:31 20° 107° (ESE) 18:46:25 145.827
KKS-1 28 May 18:55:15 18:59:31 47° 291° (WNW) 19:03:46 437.445
HO-68 28 May 18:59:18 19:06:11 52° 63° (ENE) 19:13:08 435.675
DOVE 4 28 May 19:01:36 19:05:34 30° 264° (W) 19:09:25 437.250
SEEDS 28 May 19:08:44 19:12:13 25° 64° (ENE) 19:15:42 437.485
CUBESAT XI-V 28 May 19:11:32 19:15:35 30° 296° (WNW) 19:19:36 437.345
LilacSat-2 28 May 19:11:38 19:15:10 34° 263° (W) 19:18:44 437.200
STARS 28 May 19:19:25 19:23:45 58° 289° (WNW) 19:28:04 437.465
CUBEBUG 2 28 May 19:26:11 19:29:46 28° 65° (ENE) 19:33:27 437.445
UWE-3 28 May 19:31:55 19:35:09 21° 62° (ENE) 19:38:26 435.000/436.395/437.385
XW-2D 28 May 19:44:19 19:46:51 17° 270° (W) 19:49:24 145.860 - 145.880
XW-2A 28 May 19:45:50 19:49:11 72° 75° (ENE) 19:52:35 145.665 - 145.685
XW-2B 28 May 19:52:48 19:54:57 14° 271° (W) 19:57:08 145.730 - 145.750
STRAND 1 28 May 19:53:24 19:57:26 22° 92° (E) 20:01:25 437.568
NUDT-PHONESAT 28 May 19:54:51 19:57:15 16° 270° (W) 19:59:39 437.300
Oscar 11 28 May 19:55:12 19:58:03 17° 60° (ENE) 20:00:55 .
CUTE 1.7 + AOD 2 28 May 19:58:44 20:03:01 76° 257° (WSW) 20:07:21 437.475
AAUSAT CUBESAT 2 28 May 20:00:40 20:04:34 39° 69° (ENE) 20:08:28 437.432
CUTE-I 28 May 20:01:23 20:05:25 22° 269° (W) 20:09:31 437.470
XW-2F 28 May 20:04:38 20:05:55 11° 273° (W) 20:07:13 145.980 - 146.000
KAITUO 1B 28 May 20:07:44 20:09:20 12° 272° (W) 20:10:57 145.475/437.950
XW-2C 28 May 20:08:29 20:08:56 10° 274° (W) 20:09:23 145.795 - 145.815
PCSat 28 May 20:19:53 20:25:19 78° 306° (NW) 20:30:48 145.827
AO-73 28 May 20:23:28 20:27:20 35° 67° (ENE) 20:31:20 145.935
Tancredo 1 28 May 20:25:56 20:28:33 25° 145° (SE) 20:31:10 437.200
ZACube-1 28 May 20:38:37 20:42:46 53° 71° (ENE) 20:47:02 437.345
SEEDS 28 May 20:43:43 20:47:43 40° 262° (W) 20:51:46 437.485
HO-68 28 May 20:47:29 20:54:07 39° 264° (W) 21:00:49 435.675
EO-88 28 May 21:01:18 21:03:19 14° 61° (ENE) 21:05:21 145.990 - 145.960
CUBEBUG 2 28 May 21:02:28 21:06:18 34° 264° (W) 21:10:15 437.445
UWE-3 28 May 21:07:12 21:11:17 49° 261° (W) 21:15:31 435.000/436.395/437.385
ISS 28 May 21:20:32 21:23:42 46° 152° (SSE) 21:26:53 437.550
Oscar 11 28 May 21:29:24 21:33:44 66° 258° (WSW) 21:38:06 .
STRAND 1 28 May 21:31:55 21:36:59 59° 290° (WNW) 21:42:02 437.568
DELFI C3 28 May 21:32:28 21:36:13 41° 70° (ENE) 21:39:59 145.870
AAUSAT CUBESAT 2 28 May 21:36:46 21:40:09 24° 267° (W) 21:43:34 437.432
SO-50 28 May 21:58:59 22:02:25 21° 114° (ESE) 22:05:49 436.795
AO-73 28 May 21:59:58 22:03:38 28° 266° (W) 22:07:26 145.935
Tancredo 1 28 May 22:01:00 22:04:04 82° 343° (NNW) 22:07:10 437.200
PCSat 28 May 22:05:23 22:09:36 22° 329° (NNW) 22:13:51 145.827
ESTCUBE 1 28 May 22:10:19 22:12:04 12° 54° (NE) 22:13:50 437.505/2401.250
M-CUBED/EXP-1 PRIME 28 May 22:16:20 22:19:37 60° 108° (ESE) 22:22:50 437.505
ZACube-1 28 May 22:16:22 22:19:24 19° 270° (W) 22:22:29 437.345
FO-29 28 May 22:23:13 22:28:40 27° 92° (E) 22:34:34 435.910
PRISM 28 May 22:27:45 22:30:49 20° 93° (E) 22:33:52 437.425
EO-88 28 May 22:32:57 22:36:34 59° 259° (W) 22:40:14 145.990 - 145.960
TIGRISAT 28 May 22:33:41 22:37:14 21° 91° (E) 22:40:48 435.000
ISS 28 May 22:56:53 23:00:10 65° 351° (N) 23:03:27 437.550
UNISAT 6 28 May 23:05:37 23:10:03 44° 98° (E) 23:14:31 437.425
LO-87 28 May 23:07:51 23:11:17 49° 72° (ENE) 23:14:43 145.935 - 145.965
DELFI C3 28 May 23:08:08 23:11:10 21° 268° (W) 23:14:13 145.870
STRAND 1 28 May 23:13:28 23:15:09 12° 310° (NW) 23:16:50 437.568
Tancredo 1 28 May 23:36:57 23:40:00 57° 4° (N) 23:43:02 437.200
SO-50 28 May 23:37:55 23:42:28 65° 313° (NW) 23:47:00 436.795
ESTCUBE 1 28 May 23:43:34 23:48:06 75° 74° (ENE) 23:52:39 437.505/2401.250
M-CUBED/EXP-1 PRIME 28 May 23:52:12 23:53:40 12° 307° (NW) 23:55:07 437.505
PCSat 28 May 23:52:49 23:55:07 12° 355° (N) 23:57:24 145.827
POLYITAN 1 28 May 23:55:31 23:56:52 11° 87° (E) 23:58:12 437.675
PRISM 29 May 00:02:26 00:06:19 43° 291° (WNW) 00:10:10 437.425
SPROUT 29 May 00:03:13 00:07:02 34° 67° (ENE) 00:10:53 437.525
QB50P2 29 May 00:03:25 00:05:52 15° 89° (E) 00:08:19 145.880/145.840
50 SAT 29 May 00:03:49 00:05:59 16° 62° (ENE) 00:08:08 437.505
FO-29 29 May 00:07:46 00:14:06 69° 289° (WNW) 00:21:15 435.910
TIGRISAT 29 May 00:09:43 00:14:12 53° 290° (WNW) 00:18:44 435.000
AIST 2D 29 May 00:17:10 00:20:25 32° 96° (E) 00:23:39 435.315
VELOX 1 29 May 00:28:10 00:32:30 60° 71° (ENE) 00:36:51 145.980
ISS 29 May 00:33:34 00:36:53 68° 12° (NNE) 00:40:09 437.550
EO-79 29 May 00:38:39 00:42:25 29° 95° (E) 00:46:09 145.935-145.965
UNISAT 6 29 May 00:42:43 00:46:34 27° 296° (WNW) 00:50:27 437.425
UKube-1 29 May 00:42:56 00:46:28 25° 63° (ENE) 00:50:01 .
LO-87 29 May 00:43:06 00:45:01 14° 270° (W) 00:46:56 145.935 - 145.965
RS-15 29 May 00:55:19 01:03:55 23° 98° (E) 01:12:36 29.354- 29.394
DX 1 29 May 00:55:20 00:59:28 44° 69° (ENE) 01:03:37 434.975-435.025
YUBILEINY 29 May 01:03:49 01:11:55 45° 87° (E) 01:20:05 435.215
Tancredo 1 29 May 01:12:46 01:15:49 65° 203° (SSW) 01:18:51 437.200
SO-50 29 May 01:20:29 01:23:46 19° 335° (NNW) 01:27:02 436.795
NANOSAT C BR1 29 May 01:21:52 01:26:09 73° 104° (ESE) 01:30:23 145.865
ESTCUBE 1 29 May 01:22:55 01:25:27 15° 272° (W) 01:27:59 437.505/2401.250
POLYITAN 1 29 May 01:28:58 01:33:16 88° 288° (WNW) 01:37:34 437.675
DUCHIFAT 1 29 May 01:31:06 01:35:23 81° 104° (ESE) 01:39:38 145.980
Oscar 19 29 May 01:31:41 01:34:08 13° 86° (E) 01:36:33 437.125/150
50 SAT 29 May 01:35:13 01:38:32 44° 260° (W) 01:41:52 437.505
PCSat 29 May 01:37:21 01:40:51 17° 22° (NNE) 01:44:21 145.827
QB50P2 29 May 01:37:51 01:42:07 67° 287° (WNW) 01:46:21 145.880/145.840
BUGSAT 1 29 May 01:38:43 01:42:29 33° 97° (E) 01:46:16 437.445
SPROUT 29 May 01:39:19 01:42:58 28° 265° (W) 01:46:40 437.525
AIST 2D 29 May 01:50:40 01:53:29 22° 295° (WNW) 01:56:16 435.315
FO-29 29 May 01:54:25 01:58:18 17° 308° (NW) 02:02:25 435.910
